EW7658 Weather Reports


time (UTC)temp
C
wind
direction
speed
KPH
gust
KPH
rain 1hr
cm
rain 24hr
cm
rain mn
cm
humidity
%
barometer
mb
20260510220526 21 0 0.0 0.0 0.00 0.00 0.00 38 1020.4
20260510220040 21 0 0.0 0.0 0.00 0.00 0.00 40 1020.2
20260510215524 21 0 0.0 0.0 0.00 0.00 0.00 40 1020.3
20260510215024 21 0 0.0 0.0 0.00 0.00 0.00 39 1020.4
20260510214539 20 0 0.0 0.0 0.00 0.00 0.00 40 1020.4
20260510214024 20 0 0.0 0.0 0.00 0.00 0.00 39 1020.4
20260510213529 20 0 0.0 0.0 0.00 0.00 0.00 39 1020.3
20260510213049 21 0 0.0 0.0 0.00 0.00 0.00 39 1020.3
20260510212525 21 0 0.0 0.0 0.00 0.00 0.00 37 1020.3
20260510212026 21 0 0.0 0.0 0.00 0.00 0.00 39 1020.3
20260510211537 21 0 0.0 0.0 0.00 0.00 0.00 38 1020.3
20260510211024 21 0 0.0 0.0 0.00 0.00 0.00 38 1020.3
20260510210525 22 0 0.0 0.0 0.00 0.00 0.00 38 1020.3
20260510210037 22 0 0.0 11.3 0.00 0.00 0.00 39 1020.4
20260510205525 21 0 0.0 11.3 0.00 0.00 0.00 36 1020.5
20260510205024 22 267 0.0 0.0 0.00 0.00 0.00 36 1020.4
20260510204551 22 0 0.0 0.0 0.00 0.00 0.00 36 1020.5
20260510204024 22 0 0.0 1.6 0.00 0.00 0.00 41 1020.5
20260510203524 22 0 0.0 1.6 0.00 0.00 0.00 37 1020.4
20260510203039 22 0 0.0 0.0 0.00 0.00 0.00 38 1020.3
20260510202525 22 0 0.0 0.0 0.00 0.00 0.00 41 1020.3
20260510202024 22 0 0.0 0.0 0.00 0.00 0.00 40 1020.3
20260510201538 21 0 0.0 0.0 0.00 0.00 0.00 40 1020.3
20260510201024 21 0 0.0 0.0 0.00 0.00 0.00 41 1020.4
20260510200527 21 0 0.0 0.0 0.00 0.00 0.00 43 1020.2
20260510200037 21 0 0.0 0.0 0.00 0.00 0.00 44 1020.3
20260510195524 21 0 0.0 0.0 0.00 0.00 0.00 42 1020.3
20260510195024 21 0 0.0 0.0 0.00 0.00 0.00 43 1020.4
20260510194534 21 0 0.0 0.0 0.00 0.00 0.00 40 1020.5
20260510194024 21 0 0.0 0.0 0.00 0.00 0.00 41 1020.6
20260510193525 21 0 0.0 11.3 0.00 0.00 0.00 42 1020.5
20260510193036 21 0 0.0 11.3 0.00 0.00 0.00 42 1020.6
20260510192525 21 89 0.0 0.0 0.00 0.00 0.00 43 1020.8
20260510192025 21 0 0.0 0.0 0.00 0.00 0.00 44 1020.7
20260510191545 21 0 0.0 0.0 0.00 0.00 0.00 41 1020.7
20260510191025 20 0 0.0 0.0 0.00 0.00 0.00 43 1020.6
20260510190529 20 0 0.0 0.0 0.00 0.00 0.00 43 1020.6
20260510190041 20 0 0.0 0.0 0.00 0.00 0.00 43 1020.7
20260510185525 20 0 0.0 1.6 0.00 0.00 0.00 43 1020.6
20260510185029 19 0 0.0 1.6 0.00 0.00 0.00 46 1020.5
20260510184537 19 0 0.0 0.0 0.00 0.00 0.00 44 1020.5
20260510184024 19 0 0.0 4.8 0.00 0.00 0.00 42 1020.5
20260510183524 19 0 0.0 4.8 0.00 0.00 0.00 44 1020.5
20260510183043 20 58 0.0 0.0 0.00 0.00 0.00 46 1020.5
20260510182528 19 0 0.0 0.0 0.00 0.00 0.00 45 1020.4
20260510182026 19 0 0.0 0.0 0.00 0.00 0.00 43 1020.4
20260510181545 20 0 0.0 0.0 0.00 0.00 0.00 43 1020.4
20260510181025 20 0 0.0 0.0 0.00 0.00 0.00 44 1020.5
20260510180524 20 0 0.0 0.0 0.00 0.00 0.00 46 1020.4
20260510180043 20 0 0.0 0.0 0.00 0.00 0.00 45 1020.3
20260510175524 20 0 0.0 0.0 0.00 0.00 0.00 45 1020.4
20260510175025 20 0 0.0 0.0 0.00 0.00 0.00 42 1020.5
20260510174543 20 0 0.0 0.0 0.00 0.00 0.00 43 1020.5
20260510174025 20 0 0.0 0.0 0.00 0.00 0.00 42 1020.6
20260510173524 20 0 0.0 1.6 0.00 0.00 0.00 44 1020.6
20260510173035 20 0 0.0 1.6 0.00 0.00 0.00 44 1020.6
20260510172524 19 0 0.0 1.6 0.00 0.00 0.00 46 1020.7
20260510172026 18 0 0.0 4.8 0.00 0.00 0.00 47 1020.5
20260510171538 18 0 0.0 4.8 0.00 0.00 0.00 49 1020.8
20260510171024 18 0 0.0 4.8 0.00 0.00 0.00 48 1020.9
20260510170524 18 0 0.0 0.0 0.00 0.00 0.00 50 1020.8
20260510170037 18 0 0.0 0.0 0.00 0.00 0.00 48 1020.8
20260510165525 18 0 0.0 1.6 0.00 0.00 0.00 52 1020.9
20260510165024 18 0 0.0 1.6 0.00 0.00 0.00 51 1020.9
20260510164603 18 0 0.0 0.0 0.00 0.00 0.00 55 1020.9
20260510164025 17 0 0.0 0.0 0.00 0.00 0.00 61 1020.8
20260510163526 17 0 0.0 0.0 0.00 0.00 0.00 61 1020.9
20260510163044 17 0 0.0 0.0 0.00 0.00 0.00 64 1021.0
20260510162524 17 0 0.0 0.0 0.00 0.00 0.00 63 1020.9
20260510162026 16 0 0.0 0.0 0.00 0.00 0.00 64 1020.8
20260510161538 16 0 0.0 3.2 0.00 0.00 0.00 64 1021.0
20260510161024 16 0 0.0 3.2 0.00 0.00 0.00 64 1020.9
20260510160526 16 111 0.0 0.0 0.00 0.00 0.00 66 1020.9
20260510160037 16 0 0.0 0.0 0.00 0.00 0.00 66 1020.9
20260510155526 16 0 0.0 0.0 0.00 0.00 0.00 65 1021.1
20260510155024 16 0 0.0 0.0 0.00 0.00 0.00 64 1021.0
20260510154538 16 0 0.0 0.0 0.00 0.00 0.00 68 1020.9
20260510154025 16 0 0.0 0.0 0.00 0.00 0.00 68 1021.0
20260510153523 15 0 0.0 0.0 0.00 0.00 0.00 70 1020.9
20260510153047 15 0 0.0 0.0 0.00 0.00 0.00 70 1021.0
20260510152525 15 0 0.0 0.0 0.00 0.00 0.00 72 1020.9
20260510152024 15 0 0.0 0.0 0.00 0.00 0.00 73 1020.9
20260510151539 14 0 0.0 0.0 0.00 0.00 0.00 72 1020.8
20260510151026 14 0 0.0 0.0 0.00 0.00 0.00 74 1020.6
20260510150525 14 0 0.0 0.0 0.00 0.00 0.00 76 1020.6
20260510150043 14 0 0.0 0.0 0.00 0.00 0.00 76 1020.4
20260510145527 14 0 0.0 0.0 0.00 0.00 0.00 75 1020.5
20260510145024 14 0 0.0 0.0 0.00 0.00 0.00 76 1020.6
20260510144547 14 0 0.0 0.0 0.00 0.00 0.00 76 1020.5
20260510144024 14 0 0.0 0.0 0.00 0.00 0.00 76 1020.6
20260510143524 14 0 0.0 0.0 0.00 0.00 0.00 76 1020.5
20260510143037 14 0 0.0 0.0 0.00 0.00 0.00 76 1020.5
20260510142527 14 0 0.0 0.0 0.00 0.00 0.00 77 1020.2
20260510142026 14 0 0.0 0.0 0.00 0.00 0.00 78 1020.3
20260510141535 14 0 0.0 0.0 0.00 0.00 0.00 78 1020.5
20260510141026 14 0 0.0 0.0 0.00 0.00 0.00 78 1020.2
20260510140527 14 0 0.0 0.0 0.00 0.00 0.00 81 1020.1
20260510140040 13 0 0.0 0.0 0.00 0.00 0.00 81 1019.8
20260510135524 13 0 0.0 0.0 0.00 0.00 0.00 81 1019.7
20260510135025 13 0 0.0 0.0 0.00 0.00 0.00 81 1019.5
20260510134547 13 0 0.0 0.0 0.00 0.00 0.00 81 1019.4
20260510134025 13 0 0.0 0.0 0.00 0.00 0.00 82 1019.6
20260510133527 13 0 0.0 0.0 0.00 0.00 0.00 80 1019.7
20260510133037 13 0 0.0 0.0 0.00 0.00 0.00 80 1019.5
20260510132525 13 0 0.0 0.0 0.00 0.00 0.00 80 1019.5
20260510132025 13 0 0.0 0.0 0.00 0.00 0.00 85 1019.6
20260510131537 13 0 0.0 0.0 0.00 0.00 0.00 84 1019.7
20260510131025 13 0 0.0 0.0 0.00 0.00 0.00 86 1019.6
20260510130525 13 0 0.0 0.0 0.00 0.00 0.00 84 1019.4
20260510130037 12 0 0.0 0.0 0.00 0.00 0.00 86 1019.2
20260510125523 12 0 0.0 0.0 0.00 0.00 0.00 86 1019.2
20260510125024 12 0 0.0 0.0 0.00 0.00 0.00 86 1019.3
20260510124540 12 0 0.0 0.0 0.00 0.00 0.00 88 1019.2
20260510124024 12 0 0.0 0.0 0.00 0.00 0.00 89 1019.1
20260510123524 11 0 0.0 0.0 0.00 0.00 0.00 88 1019.0
20260510123038 11 0 0.0 0.0 0.00 0.00 0.00 89 1018.9
20260510122523 11 0 0.0 0.0 0.00 0.00 0.00 90 1018.6
20260510122026 11 0 0.0 0.0 0.00 0.00 0.00 90 1018.6
20260510121538 11 0 0.0 0.0 0.00 0.00 0.00 90 1018.5
20260510121025 11 0 0.0 0.0 0.00 0.00 0.00 91 1018.4
20260510120525 11 0 0.0 0.0 0.00 0.00 0.00 93 1018.4
20260510120037 11 0 0.0 0.0 0.00 0.00 0.00 92 1018.5
20260510115524 11 0 0.0 0.0 0.00 0.00 0.00 92 1018.2
20260510115024 11 0 0.0 0.0 0.00 0.00 0.00 93 1018.2
20260510114538 11 0 0.0 0.0 0.00 0.00 0.00 93 1018.0
20260510114024 10 0 0.0 0.0 0.00 0.00 0.00 94 1017.8
20260510113524 10 0 0.0 0.0 0.00 0.00 0.00 94 1017.6
20260510113035 10 0 0.0 0.0 0.00 0.00 0.00 94 1017.5
20260510112524 10 0 0.0 0.0 0.00 0.00 0.00 94 1017.6
20260510112024 10 0 0.0 0.0 0.00 0.00 0.00 94 1017.3
20260510111540 10 0 0.0 0.0 0.00 0.00 0.00 94 1017.3
20260510111024 10 0 0.0 0.0 0.00 0.00 0.00 95 1017.3
20260510110527 10 0 0.0 0.0 0.00 0.00 0.00 95 1017.2
20260510110040 11 0 0.0 0.0 0.00 0.00 0.00 95 1016.9
20260510105526 11 0 0.0 0.0 0.00 0.00 0.00 96 1016.9
20260510105024 11 0 0.0 0.0 0.00 0.00 0.00 96 1016.8
20260510104538 11 0 0.0 0.0 0.00 0.00 0.00 96 1016.8
20260510104024 11 0 0.0 0.0 0.00 0.00 0.00 97 1016.7
20260510103524 11 0 0.0 0.0 0.00 0.00 0.00 97 1016.5
20260510103043 11 0 0.0 0.0 0.00 0.00 0.00 97 1016.5
20260510102530 11 0 0.0 0.0 0.00 0.00 0.00 97 1016.6
20260510102026 11 0 0.0 0.0 0.00 0.00 0.00 97 1016.5
20260510101541 11 0 0.0 0.0 0.00 0.00 0.00 97 1016.4
20260510101024 11 0 0.0 0.0 0.00 0.00 0.00 97 1016.3
20260510100526 11 0 0.0 0.0 0.00 0.00 0.00 97 1016.0
20260510100050 11 0 0.0 0.0 0.00 0.00 0.00 97 1015.7
20260510095524 11 0 0.0 0.0 0.00 0.00 0.00 97 1016.0
20260510095026 11 0 0.0 0.0 0.00 0.00 0.00 97 1015.9
20260510094544 11 0 0.0 0.0 0.00 0.00 0.00 97 1015.9
20260510094023 11 0 0.0 0.0 0.00 0.00 0.00 97 1016.0
20260510093524 12 0 0.0 0.0 0.00 0.00 0.00 97 1016.0
20260510093037 12 0 0.0 0.0 0.00 0.00 0.00 97 1016.0
20260510092525 12 0 0.0 0.0 0.00 0.00 0.00 97 1015.7
20260510092024 12 0 0.0 0.0 0.00 0.00 0.00 98 1015.9
20260510091537 12 0 0.0 0.0 0.00 0.00 0.00 98 1015.8
20260510091027 12 0 0.0 0.0 0.00 0.00 0.00 98 1015.6
20260510090527 12 0 0.0 0.0 0.00 0.00 0.00 98 1015.6
20260510090037 12 0 0.0 0.0 0.00 0.00 0.00 98 1015.6
20260510085523 12 0 0.0 0.0 0.00 0.00 0.00 98 1015.6
20260510085027 12 0 0.0 0.0 0.00 0.00 0.00 98 1015.4
20260510084550 13 0 0.0 0.0 0.00 0.00 0.00 98 1015.3
20260510084024 13 0 0.0 0.0 0.00 0.00 0.00 98 1015.1
20260510083524 13 0 0.0 0.0 0.00 0.00 0.00 98 1015.1
20260510083041 13 0 0.0 0.0 0.00 0.00 0.00 98 1014.8
20260510082524 13 0 0.0 0.0 0.00 0.00 0.00 98 1014.9
20260510082023 13 0 0.0 0.0 0.00 0.00 0.00 98 1014.7
20260510081537 13 0 0.0 0.0 0.00 0.00 0.00 98 1014.4
20260510081024 13 0 0.0 0.0 0.00 0.00 0.00 98 1014.3
20260510080524 13 0 0.0 0.0 0.00 0.00 0.00 98 1014.3
20260510080038 13 0 0.0 0.0 0.00 0.00 0.00 98 1014.2
20260510075527 13 0 0.0 0.0 0.00 0.00 0.00 98 1014.0
20260510075024 13 0 0.0 0.0 0.00 0.00 0.00 98 1014.0
20260510074536 13 0 0.0 0.0 0.00 0.00 0.00 98 1014.0
20260510074025 13 0 0.0 0.0 0.00 0.00 0.00 98 1014.0
20260510073524 13 0 0.0 0.0 0.00 0.00 0.00 98 1014.2
20260510073035 13 0 0.0 0.0 0.00 0.00 0.00 98 1014.1
20260510072524 13 0 0.0 0.0 0.00 0.00 0.00 98 1014.1
20260510072026 14 0 0.0 0.0 0.00 0.00 0.00 98 1014.2
20260510071547 13 0 0.0 0.0 0.00 0.00 0.00 98 1014.1
20260510071024 13 0 0.0 0.0 0.00 0.00 0.00 98 1014.0
20260510070524 13 0 0.0 0.0 0.00 0.00 0.00 98 1013.9
20260510070042 13 0 0.0 0.0 0.00 0.00 0.00 98 1014.0
20260510065547 13 0 0.0 0.0 0.00 0.00 0.00 98 1014.1
20260510065024 13 0 0.0 0.0 0.00 0.00 0.00 98 1014.0
20260510064538 14 0 0.0 0.0 0.00 0.00 0.00 98 1013.9
20260510064025 14 0 0.0 0.0 0.00 0.00 0.00 98 1014.0
20260510063524 14 0 0.0 0.0 0.00 0.00 0.00 98 1013.9
20260510063038 14 0 0.0 0.0 0.00 0.00 0.00 98 1013.9
20260510062524 14 0 0.0 0.0 0.00 0.00 0.00 98 1014.0
20260510062026 14 0 0.0 0.0 0.00 0.00 0.00 98 1013.8
20260510061543 14 0 0.0 0.0 0.00 0.00 0.00 98 1013.6
20260510061024 14 0 0.0 0.0 0.00 0.00 0.00 98 1013.8
20260510060525 14 0 0.0 0.0 0.00 0.00 0.00 98 1013.8
20260510060052 14 0 0.0 0.0 0.00 0.00 0.00 98 1014.0
20260510055524 14 0 0.0 0.0 0.00 0.00 0.00 98 1014.0
20260510055024 14 0 0.0 0.0 0.00 0.00 0.00 98 1013.9
20260510054539 14 0 0.0 0.0 0.00 0.00 0.00 98 1013.6
20260510054024 15 0 0.0 0.0 0.00 0.00 0.00 97 1013.7
20260510053524 15 0 0.0 0.0 0.00 0.00 0.00 97 1013.6
20260510053035 15 0 0.0 0.0 0.00 0.00 0.00 97 1013.7
20260510052523 15 0 0.0 0.0 0.00 0.00 0.00 97 1013.5
20260510052023 15 0 0.0 0.0 0.00 0.00 0.00 97 1013.2
20260510051542 15 0 0.0 0.0 0.00 0.00 0.00 97 1012.9
20260510051024 15 0 0.0 0.0 0.00 0.00 0.00 97 1012.9
20260510050524 15 0 0.0 0.0 0.00 0.00 0.00 97 1013.0
20260510050039 15 0 0.0 0.0 0.00 0.00 0.00 97 1013.2
20260510045524 15 0 0.0 0.0 0.00 0.00 0.00 97 1013.2
20260510045024 15 0 0.0 0.0 0.00 0.00 0.00 97 1013.2
20260510044540 15 0 0.0 0.0 0.00 0.00 0.00 97 1013.1
20260510044024 15 0 0.0 0.0 0.00 0.00 0.00 97 1012.8
20260510043524 15 0 0.0 0.0 0.00 0.00 0.00 97 1012.9
20260510043047 15 0 0.0 0.0 0.00 0.00 0.00 97 1012.9
20260510042523 15 0 0.0 1.6 0.00 0.00 0.00 97 1012.7
20260510042023 15 0 0.0 1.6 0.00 0.00 0.00 96 1012.5
20260510041549 15 0 0.0 1.6 0.00 0.00 0.00 96 1012.4
20260510041024 15 0 0.0 0.0 0.00 0.00 0.00 96 1012.4
20260510040524 15 0 0.0 0.0 0.00 0.00 0.00 96 1012.3
20260510040043 15 0 0.0 0.0 0.00 0.00 0.00 96 1012.6
20260510035523 15 0 0.0 0.0 0.00 0.00 0.00 96 1012.5
20260510035023 15 0 0.0 0.0 0.00 0.00 0.00 95 1012.8
20260510034537 15 0 0.0 0.0 0.00 0.00 0.00 95 1012.8
20260510034026 15 0 0.0 0.0 0.00 0.00 0.00 95 1012.8
20260510033523 15 0 0.0 1.6 0.00 0.00 0.00 95 1012.7
20260510033037 15 0 0.0 1.6 0.00 0.00 0.00 94 1012.1
20260510032523 15 0 0.0 0.0 0.00 0.00 0.00 93 1012.9
20260510032024 16 0 0.0 0.0 0.00 0.00 0.00 93 1013.1
20260510031536 16 0 0.0 9.7 0.00 0.00 0.00 93 1013.4
20260510031024 16 0 0.0 12.9 0.00 0.00 0.00 92 1013.4
20260510030527 16 0 0.0 29.0 0.00 0.00 0.00 91 1013.6
20260510030041 16 0 0.0 29.0 0.00 0.00 0.00 90 1013.8
20260510025523 16 337 3.2 33.8 0.00 0.00 0.00 89 1013.6
20260510025026 17 314 3.2 37.0 0.00 0.00 0.00 86 1013.2
20260510024551 18 205 9.7 37.0 0.00 0.00 0.00 81 1012.8
20260510024026 19 0 4.8 37.0 0.00 0.00 0.00 75 1012.1
20260510023523 20 280 0.0 6.4 0.00 0.00 0.00 71 1012.1
20260510023034 19 0 0.0 0.0 0.00 0.00 0.00 75 1010.0
20260510022523 19 0 0.0 0.0 0.00 0.00 0.00 76 1010.0
20260510022020 18 0 0.0 0.0 0.00 0.00 0.00 76 1009.8
20260510021536 18 0 0.0 0.0 0.00 0.00 0.00 75 1009.7
20260510021024 18 0 0.0 0.0 0.00 0.00 0.00 75 1009.5
20260510020525 18 0 0.0 0.0 0.00 0.00 0.00 74 1009.4
20260510020047 19 0 0.0 0.0 0.00 0.00 0.00 73 1009.4
20260510015523 19 0 0.0 0.0 0.00 0.00 0.00 72 1009.4
20260510015023 19 0 0.0 0.0 0.00 0.00 0.00 72 1009.4
20260510014539 19 0 0.0 0.0 0.00 0.00 0.00 71 1009.3
20260510014024 20 0 0.0 0.0 0.00 0.00 0.00 71 1009.3
20260510013524 20 0 0.0 0.0 0.00 0.00 0.00 70 1009.2
20260510013041 20 0 0.0 0.0 0.00 0.00 0.00 68 1009.0
20260510012523 20 0 0.0 0.0 0.00 0.00 0.00 66 1009.1
20260510012023 20 0 0.0 0.0 0.00 0.00 0.00 66 1009.0
20260510011539 21 0 0.0 0.0 0.00 0.00 0.00 64 1009.0
20260510011024 21 0 0.0 0.0 0.00 0.00 0.00 62 1009.1
20260510010525 21 0 0.0 0.0 0.00 0.00 0.00 61 1009.1
20260510010050 22 0 0.0 0.0 0.00 0.00 0.00 59 1009.1
20260510005523 22 0 0.0 0.0 0.00 0.00 0.00 58 1009.0
20260510005023 23 0 0.0 0.0 0.00 0.00 0.00 58 1008.9
20260510004541 23 0 0.0 0.0 0.00 0.00 0.00 57 1009.0
20260510004027 25 0 0.0 0.0 0.00 0.00 0.00 56 1008.9
20260510003525 25 0 0.0 0.0 0.00 0.00 0.00 52 1008.9
20260510003039 26 0 0.0 0.0 0.00 0.00 0.00 51 1008.8
20260510002524 26 0 0.0 0.0 0.00 0.00 0.00 50 1008.7
20260510002023 26 0 0.0 0.0 0.00 0.00 0.00 49 1008.7
20260510001537 26 0 0.0 0.0 0.00 0.00 0.00 52 1008.7
20260510001023 26 0 0.0 0.0 0.00 0.00 0.00 50 1008.6
20260510000524 26 0 0.0 0.0 0.00 0.00 0.00 49 1008.7
20260510000042 26 0 0.0 0.0 0.00 0.00 0.00 47 1008.6
20260509235524 26 0 0.0 0.0 0.00 0.03 0.00 46 1008.6
20260509235023 26 0 0.0 0.0 0.00 0.03 0.00 46 1008.5
20260509234550 26 0 0.0 0.0 0.00 0.03 0.00 44 1008.6
20260509234024 26 0 0.0 0.0 0.00 0.03 0.00 44 1008.5
20260509233523 26 0 0.0 0.0 0.00 0.03 0.00 44 1008.6
20260509233036 26 0 0.0 0.0 0.00 0.03 0.00 44 1008.5
20260509232526 27 0 0.0 0.0 0.00 0.03 0.00 44 1008.6
20260509232024 27 0 0.0 0.0 0.00 0.03 0.00 43 1008.6
20260509231538 27 0 0.0 0.0 0.00 0.03 0.00 43 1008.6
20260509231023 27 0 0.0 0.0 0.00 0.03 0.00 42 1008.7
20260509230525 27 0 0.0 0.0 0.00 0.03 0.00 41 1008.6
20260509230038 27 0 0.0 0.0 0.00 0.03 0.00 40 1008.6
20260509225523 28 0 0.0 0.0 0.00 0.03 0.00 40 1008.6
20260509225026 28 0 0.0 0.0 0.00 0.03 0.00 40 1008.5
20260509224538 28 0 0.0 0.0 0.00 0.03 0.00 41 1008.5
20260509224023 27 0 0.0 0.0 0.00 0.03 0.00 40 1008.5
20260509223523 28 0 0.0 0.0 0.00 0.03 0.00 40 1008.6
20260509223038 28 0 0.0 0.0 0.00 0.03 0.00 40 1008.5
20260509222523 28 0 0.0 0.0 0.00 0.03 0.00 42 1008.7
20260509222023 28 0 0.0 0.0 0.00 0.03 0.00 41 1008.7
20260509221600 28 0 0.0 0.0 0.00 0.03 0.00 39 1008.7
20260509221024 28 0 0.0 0.0 0.00 0.03 0.00 39 1008.7